Volver al catálogo

BREEZE-M R/B

LostHEO
NORAD 40985·ROCKET BODY·🇷🇺 Russia

Lanzado Oct 16, 2015 desde Baikonur Cosmodrome

Loading…

Próximos Pases (próximas 24 horas)

TLE

ObsoletoSource: Space-Track

Época: Aug 5, 2026, 15:44 UTC

1 40985U 15060B   26217.65587084 -.00000072  00000-0  00000-0 0  9999
2 40985  13.5059 299.4224 4772319  61.7370 338.0461  1.91626399 75621

Sigue BREEZE-M R/B en tiempo real con AllMySat

Download on the App Store